"Pseudo-MPEC" for P11XzIQ

Created 2024 Sep 14 3:22:06 UT using Find_Orb

Click here for an explanation of pseudo-MPECs

 
 Astrometry: 
     P11XzIQ* C2024 08 27.53669700 23 48.536-04 48 43.34   ~8RFq 21.20wXNEOCPF51
     P11XzIQ  C2024 08 27.55772500 23 43.337-04 46 38.26   ~8RFq 21.27wXNEOCPF51
     P11XzIQ  C2024 08 27.56824000 23 40.722-04 45 35.40   ~8RFq 21.22wXNEOCPF51
     P11XzIQ 1C2024 08 27.99452 00 22 03.20 -04 02 47.8    ~8SFq 21.5 VXNEOCP033
     P11XzIQ 1C2024 08 27.99672 00 22 02.68 -04 02 34.4    ~8SFq 21.5 VXNEOCP033

Station data:
(033) Karl Schwarzschild Observatory, Tautenburg  (N50.980139 E11.711240)
   Germany.  Observer B. Stecklum. 1.34-m f/3 Schmidt + CCD.
(F51) Pan-STARRS 1, Haleakala  (N20.707234 W156.255910)  US/Hawaii.
   Observers J. Bulger, T. Lowe, A. Schultz, M. Willman. Measurers K.
   Chambers, S. Chastel, T. de Boer, L. Denneau, J. Fairlamb, H. Flewelling,
   M. Huber, C.-C. Lin, E. Magnier, Y. Ramanjooloo, R. Wainscoat, R. Weryk.
   1.8-m Ritchey-Chrétien + CCD.

Orbital elements:  P11XzIQ
   Perihelion 2024 Nov 28.50820 +/- 3.18 TT = 12:11:48 (JD 2460643.00820)
Epoch 2024 Aug 28.0 TT = JDT 2460550.5   Earth MOID: 0.0635      AutoNEOCP
M 284.43573951 +/- 2.6              (J2000 ecliptic)
n   0.81683848 +/- 0.0251           Peri.  110.20819 +/- 4.1
a   1.13338793 +/- 0.0232           Node   340.54644 +/- 0.17
e   0.3191873 +/- 0.0422            Incl.   25.04715 +/- 0.8
P   1.207/440.715d         H 23.65  G  0.15   U 10.3
q 0.77162486 +/- 0.0578    Q 1.49515100 +/- 0.0409
From 5 observations 2024 Aug. 27 (11.0 hr); mean residual 0".13
Residuals in arcseconds: 
240827 F51  .03-  .03+    240827 F51  .07-  .05+    240827 033  .25+  .10-    
240827 F51  .10+  .09-    240827 033  .25-  .10+    

Ephemerides (geocentric):
Date (UTC) HH   RA             Dec           delta  r     elong  mag " sig PA
---- --------  ------------   ------------  ------ ------ -----  --- --------
2024 09 14 03  21 18 44.294   +46 59 46.78  .10908 1.0678 122.1 20.9 231' 128
2024 09 14 04  21 17 52.470   +47 06 21.47  .10918 1.0676 121.9 20.9 232' 128
2024 09 14 05  21 17 00.537   +47 12 53.87  .10928 1.0674 121.7 20.9 233' 128
2024 09 14 06  21 16 08.497   +47 19 23.97  .10938 1.0672 121.5 20.9 234' 128
2024 09 14 07  21 15 16.351   +47 25 51.76  .10948 1.0669 121.4 21.0 234' 127
2024 09 14 08  21 14 24.100   +47 32 17.24  .10959 1.0667 121.2 21.0 235' 127
2024 09 14 09  21 13 31.746   +47 38 40.40  .10970 1.0665 121.0 21.0 236' 127
2024 09 14 10  21 12 39.290   +47 45 01.22  .10980 1.0663 120.8 21.0 237' 127
2024 09 14 11  21 11 46.732   +47 51 19.71  .10991 1.0660 120.7 21.0 237' 127
2024 09 14 12  21 10 54.075   +47 57 35.85  .11002 1.0658 120.5 21.0 238' 127
2024 09 14 13  21 10 01.319   +48 03 49.65  .11013 1.0656 120.3 21.0 239' 126
2024 09 14 14  21 09 08.467   +48 10 01.08  .11024 1.0654 120.1 21.0 239' 126
2024 09 14 15  21 08 15.518   +48 16 10.16  .11036 1.0651 119.9 21.0 240' 126
2024 09 14 16  21 07 22.475   +48 22 16.87  .11047 1.0649 119.8 21.0 241' 126
2024 09 14 17  21 06 29.340   +48 28 21.20  .11058 1.0647 119.6 21.0 241' 126
2024 09 14 18  21 05 36.112   +48 34 23.15  .11070 1.0645 119.4 21.0 242' 126
2024 09 14 19  21 04 42.795   +48 40 22.72  .11082 1.0642 119.2 21.0 243' 125
2024 09 14 20  21 03 49.388   +48 46 19.90  .11094 1.0640 119.1 21.0 243' 125
2024 09 14 21  21 02 55.895   +48 52 14.69  .11105 1.0638 118.9 21.0 244' 125
2024 09 14 22  21 02 02.315   +48 58 07.08  .11117 1.0636 118.7 21.0 245' 125
2024 09 14 23  21 01 08.651   +49 03 57.06  .11130 1.0633 118.5 21.1 245' 125
2024 09 15 00  21 00 14.904   +49 09 44.64  .11142 1.0631 118.4 21.1 246' 125
2024 09 15 01  20 59 21.075   +49 15 29.81  .11154 1.0629 118.2 21.1 247' 124
2024 09 15 02  20 58 27.167   +49 21 12.57  .11167 1.0627 118.0 21.1 247' 124
2024 09 15 03  20 57 33.180   +49 26 52.91  .11179 1.0624 117.8 21.1 248' 124
2024 09 15 04  20 56 39.116   +49 32 30.82  .11192 1.0622 117.7 21.1 248' 124
2024 09 15 05  20 55 44.976   +49 38 06.32  .11204 1.0620 117.5 21.1 249' 124
2024 09 15 06  20 54 50.763   +49 43 39.39  .11217 1.0618 117.3 21.1 250' 124
2024 09 15 07  20 53 56.478   +49 49 10.03  .11230 1.0615 117.2 21.1 250' 123
2024 09 15 08  20 53 02.122   +49 54 38.25  .11243 1.0613 117.0 21.1 251' 123
2024 09 15 09  20 52 07.696   +50 00 04.03  .11256 1.0611 116.8 21.1 251' 123
2024 09 15 10  20 51 13.204   +50 05 27.38  .11270 1.0609 116.6 21.1 252' 123
2024 09 15 11  20 50 18.645   +50 10 48.29  .11283 1.0606 116.5 21.1 253' 123
2024 09 15 12  20 49 24.022   +50 16 06.77  .11296 1.0604 116.3 21.1 253' 123
2024 09 15 13  20 48 29.337   +50 21 22.81  .11310 1.0602 116.1 21.1 254' 122
2024 09 15 14  20 47 34.590   +50 26 36.41  .11324 1.0600 116.0 21.2 254' 122
2024 09 15 15  20 46 39.785   +50 31 47.57  .11337 1.0597 115.8 21.2 255' 122
2024 09 15 16  20 45 44.922   +50 36 56.30  .11351 1.0595 115.6 21.2 256' 122
2024 09 15 17  20 44 50.002   +50 42 02.58  .11365 1.0593 115.5 21.2 256' 122
2024 09 15 18  20 43 55.029   +50 47 06.43  .11379 1.0591 115.3 21.2 257' 121
2024 09 15 19  20 43 00.003   +50 52 07.84  .11393 1.0588 115.1 21.2 257' 121
2024 09 15 20  20 42 04.926   +50 57 06.81  .11407 1.0586 115.0 21.2 258' 121
2024 09 15 21  20 41 09.800   +51 02 03.34  .11422 1.0584 114.8 21.2 258' 121
2024 09 15 22  20 40 14.627   +51 06 57.43  .11436 1.0582 114.6 21.2 259' 121
2024 09 15 23  20 39 19.408   +51 11 49.09  .11450 1.0579 114.5 21.2 259' 121
2024 09 16 00  20 38 24.145   +51 16 38.32  .11465 1.0577 114.3 21.2 260' 120
2024 09 16 01  20 37 28.841   +51 21 25.11  .11480 1.0575 114.1 21.2 260' 120
2024 09 16 02  20 36 33.495   +51 26 09.48  .11494 1.0573 114.0 21.2 261' 120